Flag for Canada Weather past 2 weeks in Conception Bay South, Newfoundland and Labrador, Canada

Now
30 °F

Ice fog.


Feels Like: 18 °F
Forecast: N/A
Wind: 18 mph from Northeast

Location: St. John's


UV Index: N/A

Visibility: 0 mi


Pressure: 29.78 "Hg

Humidity: 100%

Dew point: 30 °F

Location of Conception Bay SouthLocation

Historic Weather in Conception Bay South

°F

Conception Bay South temperature yesterday

Maximum temperature yesterday: 46 °F (at 1:30 PM)
Minimum temperature yesterday: 32 °F (at 12:30 AM)
Average temperature yesterday: 37 °F

Past Weeks' High & Low Weather Summary

 TemperatureHumidityPressure
High64 °F (Apr 16, 1:30 PM)100% (Apr 9, 3:30 AM)30.77 "Hg (Apr 9, 3:30 AM)
Low21 °F (Apr 18, 6:30 AM)37% (Apr 11, 12:30 PM)29.35 "Hg (Apr 10, 4:30 AM)
Average36 °F83%30.07 "Hg
* Reported Apr 8 6:30 PM — Apr 23 6:30 PM, Conception Bay South, Weather by CustomWeather, © 2014

Note: Actual official high and low records may vary slightly from our data, if they occured in-between our weather recording intervals... More about our weather records

Advertising

Historic Weather Conditions — Data for Previous 24 hours

 ConditionsComfort  
Time TempWeatherWind HumidityBarometerVisibility
6:30 PM
Apr 23
30 °FIce fog.17 mph100%29.79 "Hg0 mi
5:30 PM30 °FIce fog.21 mph100%29.79 "Hg0 mi
4:30 PM30 °FIce fog.15 mph100%29.80 "Hg0 mi
3:30 PM32 °FIce fog.15 mph100%29.82 "Hg0 mi
2:30 PM32 °FFog.15 mph100%29.84 "Hg0 mi
1:30 PM32 °FIce fog.16 mph100%29.86 "Hg0 mi
12:30 PM32 °FIce fog.16 mph100%29.88 "Hg0 mi
11:30 AM32 °FIce fog.13 mph100%29.89 "Hg0 mi
10:30 AM30 °FIce fog.17 mph100%29.90 "Hg0 mi
9:30 AM30 °FIce fog.14 mph100%29.92 "Hg0 mi
8:30 AM30 °FChilly.12 mph100%29.91 "Hg0 mi
7:30 AM30 °FLight freezing rain. Ice fog.8 mph100%29.91 "Hg0 mi
6:30 AM30 °FLight freezing rain. Ice fog.10 mph100%29.92 "Hg0 mi
5:30 AM30 °FLight freezing rain. Ice fog.12 mph100%29.90 "Hg0 mi
4:30 AM32 °FLight freezing rain. Ice fog.9 mph100%29.92 "Hg0 mi
3:30 AM32 °FLight freezing rain. Ice fog.10 mph100%29.92 "Hg0 mi
2:30 AM32 °FLight freezing rain. Ice fog.13 mph100%29.93 "Hg0 mi
1:30 AM30 °FLight freezing rain. Ice fog.10 mph100%29.92 "Hg0 mi
1:21 AM30 °FLight freezing rain. Ice fog.10 mph100%29.92 "Hg0 mi
12:30 AM32 °FIce fog.8 mph100%29.93 "Hg0 mi
11:30 PM
Apr 22
32 °FFog.12 mph100%29.93 "Hg0 mi
10:30 PM32 °FFog.7 mph100%29.94 "Hg1 mi
9:30 PM34 °FFog.9 mph93%29.93 "Hg1 mi
8:30 PM36 °FPassing clouds.8 mph87%29.92 "Hg15 mi
Weather by CustomWeather, © 2014

See weather overview